TimeEDT,TemperatureF,Dew PointF,Humidity,Sea Level PressureIn,VisibilityMPH,Wind Direction,Wind SpeedMPH,Gust SpeedMPH,PrecipitationIn,Events,Conditions,WindDirDegrees,DateUTC
12:15 AM,39.2,32.0,75,30.36,10.0,NE,6.9,-,N/A,,Clear,40,2013-04-21 04:15:00
12:35 AM,41.0,32.0,70,30.36,10.0,ENE,5.8,-,N/A,,Clear,60,2013-04-21 04:35:00
12:55 AM,41.0,30.2,65,30.37,10.0,NE,5.8,-,N/A,,Clear,50,2013-04-21 04:55:00
1:15 AM,39.2,30.2,70,30.37,10.0,NE,8.1,-,N/A,,Clear,50,2013-04-21 05:15:00
1:35 AM,39.2,30.2,70,30.38,10.0,ENE,6.9,-,N/A,,Clear,60,2013-04-21 05:35:00
1:55 AM,37.4,30.2,75,30.38,10.0,NE,5.8,-,N/A,,Clear,50,2013-04-21 05:55:00
2:15 AM,37.4,30.2,75,30.38,10.0,NE,5.8,-,N/A,,Clear,50,2013-04-21 06:15:00
2:35 AM,37.4,30.2,75,30.38,10.0,NE,6.9,-,N/A,,Clear,50,2013-04-21 06:35:00
5:15 AM,33.8,30.2,87,30.40,10.0,NE,4.6,-,N/A,,Clear,40,2013-04-21 09:15:00
5:35 AM,33.8,30.2,87,30.40,10.0,ENE,3.5,-,N/A,,Clear,60,2013-04-21 09:35:00
5:55 AM,33.8,30.2,87,30.41,10.0,NE,4.6,-,N/A,,Clear,50,2013-04-21 09:55:00
6:15 AM,33.8,30.2,87,30.41,10.0,ENE,3.5,-,N/A,,Clear,60,2013-04-21 10:15:00
6:35 AM,32.0,28.4,87,30.42,10.0,NE,3.5,-,N/A,,Clear,50,2013-04-21 10:35:00
6:55 AM,32.0,28.4,87,30.42,10.0,NE,3.5,-,N/A,,Clear,50,2013-04-21 10:55:00
7:15 AM,32.0,30.2,93,30.43,10.0,ENE,3.5,-,N/A,,Clear,60,2013-04-21 11:15:00
7:35 AM,33.8,30.2,87,30.44,10.0,ENE,3.5,-,N/A,,Clear,60,2013-04-21 11:35:00
7:55 AM,33.8,30.2,87,30.45,10.0,ENE,3.5,-,N/A,,Clear,60,2013-04-21 11:55:00
8:15 AM,35.6,30.2,81,30.45,10.0,ENE,4.6,-,N/A,,Clear,60,2013-04-21 12:15:00
8:35 AM,37.4,30.2,75,30.45,10.0,ENE,5.8,-,N/A,,Clear,70,2013-04-21 12:35:00
8:55 AM,41.0,30.2,65,30.46,10.0,East,8.1,-,N/A,,Clear,90,2013-04-21 12:55:00
9:15 AM,42.8,30.2,61,30.46,10.0,East,9.2,-,N/A,,Clear,90,2013-04-21 13:15:00
9:35 AM,42.8,30.2,61,30.46,10.0,East,6.9,-,N/A,,Clear,100,2013-04-21 13:35:00
9:55 AM,44.6,32.0,61,30.46,10.0,East,10.4,-,N/A,,Clear,90,2013-04-21 13:55:00
10:15 AM,46.4,32.0,57,30.46,10.0,East,10.4,-,N/A,,Clear,100,2013-04-21 14:15:00
10:35 AM,46.4,32.0,57,30.47,10.0,East,10.4,-,N/A,,Clear,90,2013-04-21 14:35:00
10:55 AM,50.0,32.0,50,30.47,10.0,East,10.4,-,N/A,,Clear,90,2013-04-21 14:55:00
11:15 AM,50.0,32.0,50,30.47,10.0,East,9.2,-,N/A,,Clear,90,2013-04-21 15:15:00
11:35 AM,51.8,32.0,47,30.47,10.0,East,6.9,-,N/A,,Clear,100,2013-04-21 15:35:00
11:55 AM,51.8,33.8,50,30.46,10.0,ENE,8.1,-,N/A,,Clear,60,2013-04-21 15:55:00
12:15 PM,53.6,33.8,47,30.46,10.0,ENE,8.1,-,N/A,,Clear,70,2013-04-21 16:15:00
12:35 PM,53.6,32.0,44,30.45,10.0,ENE,9.2,-,N/A,,Clear,70,2013-04-21 16:35:00
12:55 PM,53.6,32.0,44,30.44,10.0,East,11.5,-,N/A,,Clear,80,2013-04-21 16:55:00
1:15 PM,55.4,32.0,41,30.43,10.0,East,10.4,-,N/A,,Clear,90,2013-04-21 17:15:00
1:35 PM,55.4,32.0,41,30.42,10.0,East,10.4,-,N/A,,Clear,90,2013-04-21 17:35:00
1:55 PM,55.4,32.0,41,30.41,10.0,ENE,4.6,-,N/A,,Clear,60,2013-04-21 17:55:00
2:15 PM,55.4,32.0,41,30.40,10.0,ENE,4.6,-,N/A,,Clear,60,2013-04-21 18:15:00
2:35 PM,57.2,33.8,41,30.39,10.0,NE,5.8,-,N/A,,Clear,50,2013-04-21 18:35:00
2:55 PM,57.2,32.0,38,30.39,10.0,NE,6.9,-,N/A,,Clear,50,2013-04-21 18:55:00
3:15 PM,57.2,32.0,38,30.38,10.0,ESE,5.8,-,N/A,,Clear,120,2013-04-21 19:15:00
3:35 PM,59.0,33.8,39,30.37,10.0,NE,6.9,-,N/A,,Clear,40,2013-04-21 19:35:00
3:55 PM,59.0,32.0,36,30.36,10.0,NE,6.9,-,N/A,,Clear,40,2013-04-21 19:55:00
4:15 PM,59.0,32.0,36,30.35,10.0,ENE,4.6,-,N/A,,Clear,60,2013-04-21 20:15:00
4:35 PM,59.0,32.0,36,30.35,10.0,Calm,Calm,-,N/A,,Clear,0,2013-04-21 20:35:00
4:55 PM,59.0,33.8,39,30.34,10.0,NNE,8.1,-,N/A,,Clear,20,2013-04-21 20:55:00
5:15 PM,59.0,33.8,39,30.34,10.0,NNE,9.2,-,N/A,,Clear,30,2013-04-21 21:15:00
5:35 PM,59.0,33.8,39,30.34,10.0,NNE,6.9,-,N/A,,Clear,30,2013-04-21 21:35:00
5:55 PM,59.0,33.8,39,30.33,10.0,NNE,8.1,-,N/A,,Clear,20,2013-04-21 21:55:00
6:15 PM,59.0,33.8,39,30.33,10.0,NNE,9.2,-,N/A,,Clear,20,2013-04-21 22:15:00
6:35 PM,57.2,33.8,41,30.33,10.0,NNE,6.9,-,N/A,,Clear,30,2013-04-21 22:35:00
6:55 PM,55.4,33.8,44,30.32,10.0,NE,10.4,-,N/A,,Clear,40,2013-04-21 22:55:00
7:15 PM,55.4,33.8,44,30.32,10.0,NE,9.2,-,N/A,,Clear,40,2013-04-21 23:15:00
7:35 PM,53.6,33.8,47,30.33,10.0,NNE,5.8,-,N/A,,Clear,30,2013-04-21 23:35:00
7:55 PM,51.8,33.8,50,30.33,10.0,NE,4.6,-,N/A,,Clear,50,2013-04-21 23:55:00
8:15 PM,51.8,33.8,50,30.33,10.0,NE,4.6,-,N/A,,Clear,50,2013-04-22 00:15:00
8:35 PM,50.0,33.8,54,30.34,10.0,NE,4.6,-,N/A,,Clear,50,2013-04-22 00:35:00
8:55 PM,46.4,33.8,62,30.33,10.0,NE,3.5,-,N/A,,Clear,40,2013-04-22 00:55:00
9:15 PM,48.2,33.8,58,30.34,10.0,NE,3.5,-,N/A,,Clear,50,2013-04-22 01:15:00
9:35 PM,46.4,33.8,62,30.34,10.0,NE,3.5,-,N/A,,Clear,40,2013-04-22 01:35:00
9:55 PM,44.6,33.8,66,30.34,10.0,NNE,4.6,-,N/A,,Clear,30,2013-04-22 01:55:00
10:15 PM,46.4,33.8,62,30.34,10.0,NNE,3.5,-,N/A,,Clear,30,2013-04-22 02:15:00
10:35 PM,46.4,32.0,57,30.34,10.0,NNE,3.5,-,N/A,,Clear,30,2013-04-22 02:35:00
10:55 PM,44.6,32.0,61,30.34,10.0,NNE,3.5,-,N/A,,Clear,30,2013-04-22 02:55:00
11:15 PM,44.6,32.0,61,30.34,10.0,NE,4.6,-,N/A,,Clear,40,2013-04-22 03:15:00
11:35 PM,42.8,32.0,66,30.34,10.0,ENE,3.5,-,N/A,,Clear,60,2013-04-22 03:35:00
11:55 PM,42.8,32.0,66,30.34,10.0,NE,3.5,-,N/A,,Clear,50,2013-04-22 03:55:00